Time,TemperatureF,DewpointF,PressureIn,WindDirection,WindDirectionDegrees,WindSpeedMPH,WindSpeedGustMPH,Humidity,HourlyPrecipIn,Conditions,Clouds,dailyrainin,SoftwareType,DateUTC
2013-02-18 00:00:00,15.0,2.4,29.91,West,270,32.5,32.5,56,-99.99,,,-99.99,tws,2013-02-18 05:00:00,
2013-02-18 00:01:00,15.1,2.5,29.91,WNW,292,25.6,25.6,57,-99.99,,,-99.99,tws,2013-02-18 05:01:00,
2013-02-18 00:02:00,15.1,2.5,29.91,West,270,25.2,25.2,57,-99.99,,,-99.99,tws,2013-02-18 05:02:00,
2013-02-18 00:07:00,15.0,2.2,29.91,WNW,292,27.8,27.8,56,-99.99,,,-99.99,tws,2013-02-18 05:07:00,
2013-02-18 00:09:00,15.3,2.3,29.91,WNW,292,37.9,37.9,56,-99.99,,,-99.99,tws,2013-02-18 05:09:00,
2013-02-18 00:14:00,15.0,2.3,29.91,West,270,32.0,32.0,56,-99.99,,,-99.99,tws,2013-02-18 05:14:00,
2013-02-18 00:19:00,15.1,2.3,29.92,WSW,247,30.9,30.9,56,-99.99,,,-99.99,tws,2013-02-18 05:19:00,
2013-02-18 00:24:00,15.0,2.5,29.92,NW,315,30.8,30.8,57,-99.99,,,-99.99,tws,2013-02-18 05:24:00,
2013-02-18 00:29:00,15.0,2.6,29.92,North,360,26.5,26.5,57,-99.99,,,-99.99,tws,2013-02-18 05:29:00,
2013-02-18 00:34:00,15.0,2.7,29.93,NW,315,24.7,24.7,57,-99.99,,,-99.99,tws,2013-02-18 05:34:00,
2013-02-18 00:39:00,15.1,2.7,29.93,West,270,22.4,22.4,57,-99.99,,,-99.99,tws,2013-02-18 05:39:00,
2013-02-18 00:44:00,14.9,2.9,29.94,NNW,337,14.0,14.0,58,-99.99,,,-99.99,tws,2013-02-18 05:44:00,
2013-02-18 00:49:00,15.0,2.7,29.94,WNW,292,16.3,16.3,57,-99.99,,,-99.99,tws,2013-02-18 05:49:00,
2013-02-18 00:54:00,15.0,2.6,29.94,West,270,19.2,19.2,57,-99.99,,,-99.99,tws,2013-02-18 05:54:00,
2013-02-18 00:59:00,14.7,2.6,29.95,North,360,8.9,8.9,58,-99.99,,,-99.99,tws,2013-02-18 05:59:00,
2013-02-18 01:04:00,14.9,3.5,29.94,West,270,6.1,6.1,60,-99.99,,,-99.99,tws,2013-02-18 06:04:00,
2013-02-18 01:09:00,14.7,2.9,29.95,East,90,8.9,8.9,59,-99.99,,,-99.99,tws,2013-02-18 06:09:00,
2013-02-18 01:14:00,15.0,2.8,29.95,WNW,292,23.4,23.4,58,-99.99,,,-99.99,tws,2013-02-18 06:14:00,
2013-02-18 01:19:00,15.3,2.5,29.95,NNW,337,30.2,30.2,56,-99.99,,,-99.99,tws,2013-02-18 06:19:00,
2013-02-18 01:24:00,15.3,2.7,29.95,NNW,337,24.5,24.5,57,-99.99,,,-99.99,tws,2013-02-18 06:24:00,
2013-02-18 01:29:00,15.5,2.5,29.95,North,360,28.2,28.2,56,-99.99,,,-99.99,tws,2013-02-18 06:29:00,
2013-02-18 01:34:00,15.4,2.6,29.95,WNW,292,24.0,24.0,56,-99.99,,,-99.99,tws,2013-02-18 06:34:00,
2013-02-18 01:39:00,15.5,2.5,29.95,NNW,337,21.0,21.0,56,-99.99,,,-99.99,tws,2013-02-18 06:39:00,
2013-02-18 01:44:00,15.3,2.7,29.96,NW,315,20.1,20.1,57,-99.99,,,-99.99,tws,2013-02-18 06:44:00,
2013-02-18 01:49:00,15.5,2.3,29.96,NNW,337,13.1,13.1,55,-99.99,,,-99.99,tws,2013-02-18 06:49:00,
2013-02-18 01:54:00,15.1,2.6,29.97,NNW,337,12.3,12.3,57,-99.99,,,-99.99,tws,2013-02-18 06:54:00,
2013-02-18 01:59:00,14.8,3.9,29.97,NE,45,4.8,4.8,61,-99.99,,,-99.99,tws,2013-02-18 06:59:00,
2013-02-18 02:04:00,14.4,3.4,29.97,ENE,67,5.2,5.2,61,-99.99,,,-99.99,tws,2013-02-18 07:04:00,
2013-02-18 02:09:00,13.8,3.5,29.98,NNE,22,5.3,5.3,63,-99.99,,,-99.99,tws,2013-02-18 07:09:00,
2013-02-18 02:14:00,13.8,3.7,29.98,North,0,5.7,5.7,63,-99.99,,,-99.99,tws,2013-02-18 07:14:00,
2013-02-18 02:19:00,13.1,3.3,29.98,North,360,3.5,3.5,64,-99.99,,,-99.99,tws,2013-02-18 07:19:00,
2013-02-18 02:24:00,12.5,3.0,29.98,West,270,5.3,5.3,65,-99.99,,,-99.99,tws,2013-02-18 07:24:00,
2013-02-18 02:29:00,13.6,3.2,29.98,North,360,11.3,11.3,63,-99.99,,,-99.99,tws,2013-02-18 07:29:00,
2013-02-18 02:34:00,13.5,3.1,29.98,NNE,22,8.5,8.5,63,-99.99,,,-99.99,tws,2013-02-18 07:34:00,
2013-02-18 02:39:00,13.2,3.5,29.98,NNE,22,7.9,7.9,64,-99.99,,,-99.99,tws,2013-02-18 07:39:00,
2013-02-18 02:44:00,13.0,3.4,29.98,North,0,11.1,11.1,65,-99.99,,,-99.99,tws,2013-02-18 07:44:00,
2013-02-18 02:49:00,12.9,3.3,29.98,North,360,5.1,5.1,65,-99.99,,,-99.99,tws,2013-02-18 07:49:00,
2013-02-18 02:54:00,13.1,3.5,29.99,NNE,22,15.0,15.0,65,-99.99,,,-99.99,tws,2013-02-18 07:54:00,
2013-02-18 02:59:00,13.2,3.1,29.99,NE,45,13.5,13.5,63,-99.99,,,-99.99,tws,2013-02-18 07:59:00,
2013-02-18 03:04:00,13.5,3.4,29.99,NNE,22,9.1,9.1,63,-99.99,,,-99.99,tws,2013-02-18 08:04:00,
2013-02-18 03:09:00,13.4,3.3,29.99,NE,45,11.2,11.2,63,-99.99,,,-99.99,tws,2013-02-18 08:09:00,
2013-02-18 03:14:00,13.4,3.3,29.98,NE,45,9.2,9.2,63,-99.99,,,-99.99,tws,2013-02-18 08:14:00,
2013-02-18 03:19:00,13.4,3.9,30.00,North,0,2.3,2.3,65,-99.99,,,-99.99,tws,2013-02-18 08:19:00,
2013-02-18 03:24:00,13.4,3.6,29.99,NNE,22,0.5,0.5,64,-99.99,,,-99.99,tws,2013-02-18 08:24:00,
2013-02-18 03:29:00,12.6,2.9,29.99,North,0,6.9,6.9,65,-99.99,,,-99.99,tws,2013-02-18 08:29:00,
2013-02-18 03:34:00,13.0,3.1,29.99,WNW,292,5.6,5.6,64,-99.99,,,-99.99,tws,2013-02-18 08:34:00,
2013-02-18 03:39:00,12.9,2.6,29.99,NW,315,7.5,7.5,63,-99.99,,,-99.99,tws,2013-02-18 08:39:00,
2013-02-18 03:44:00,13.1,2.4,29.99,NE,45,15.5,15.5,61,-99.99,,,-99.99,tws,2013-02-18 08:44:00,
2013-02-18 03:49:00,13.4,3.1,30.00,NNE,22,6.8,6.8,63,-99.99,,,-99.99,tws,2013-02-18 08:49:00,
2013-02-18 03:54:00,13.9,2.6,30.00,NNE,22,21.4,21.4,60,-99.99,,,-99.99,tws,2013-02-18 08:54:00,
2013-02-18 03:59:00,13.5,3.0,30.00,North,0,6.5,6.5,62,-99.99,,,-99.99,tws,2013-02-18 08:59:00,
2013-02-18 04:04:00,13.0,3.0,30.00,NE,45,6.0,6.0,64,-99.99,,,-99.99,tws,2013-02-18 09:04:00,
2013-02-18 04:09:00,12.3,2.8,30.01,NW,315,5.1,5.1,65,-99.99,,,-99.99,tws,2013-02-18 09:09:00,
2013-02-18 04:14:00,12.9,3.0,30.02,NE,45,6.7,6.7,64,-99.99,,,-99.99,tws,2013-02-18 09:14:00,
2013-02-18 04:19:00,12.8,2.8,30.02,NNE,22,10.7,10.7,64,-99.99,,,-99.99,tws,2013-02-18 09:19:00,
2013-02-18 04:24:00,12.9,3.2,30.02,NNE,22,3.4,3.4,64,-99.99,,,-99.99,tws,2013-02-18 09:24:00,
2013-02-18 04:29:00,12.6,2.8,30.02,NNW,337,0.9,0.9,64,-99.99,,,-99.99,tws,2013-02-18 09:29:00,
2013-02-18 04:34:00,12.9,2.7,30.02,SSE,157,0.0,0.0,63,-99.99,,,-99.99,tws,2013-02-18 09:34:00,
2013-02-18 04:39:00,13.0,3.0,30.03,NE,45,0.1,0.1,64,-99.99,,,-99.99,tws,2013-02-18 09:39:00,
2013-02-18 04:44:00,13.4,3.4,30.03,NW,315,0.0,0.0,64,-99.99,,,-99.99,tws,2013-02-18 09:44:00,
2013-02-18 04:49:00,13.0,2.8,30.04,NNW,337,1.2,1.2,63,-99.99,,,-99.99,tws,2013-02-18 09:49:00,
2013-02-18 04:54:00,12.0,2.4,30.04,West,270,3.3,3.3,65,-99.99,,,-99.99,tws,2013-02-18 09:54:00,
2013-02-18 04:59:00,12.8,2.9,30.04,West,270,0.6,0.6,64,-99.99,,,-99.99,tws,2013-02-18 09:59:00,
2013-02-18 05:04:00,13.2,2.8,30.04,NE,45,2.6,2.6,62,-99.99,,,-99.99,tws,2013-02-18 10:04:00,
2013-02-18 05:09:00,13.2,3.2,30.05,East,90,6.1,6.1,63,-99.99,,,-99.99,tws,2013-02-18 10:09:00,
2013-02-18 05:14:00,13.0,3.0,30.05,NE,45,0.1,0.1,63,-99.99,,,-99.99,tws,2013-02-18 10:14:00,
2013-02-18 05:19:00,13.7,3.4,30.06,NNE,22,0.2,0.2,63,-99.99,,,-99.99,tws,2013-02-18 10:19:00,
2013-02-18 05:24:00,12.1,2.5,30.07,West,270,4.7,4.7,65,-99.99,,,-99.99,tws,2013-02-18 10:24:00,
2013-02-18 05:29:00,13.2,3.0,30.07,ENE,67,0.0,0.0,63,-99.99,,,-99.99,tws,2013-02-18 10:29:00,
2013-02-18 05:34:00,11.3,2.4,30.07,NNW,337,3.6,3.6,66,-99.99,,,-99.99,tws,2013-02-18 10:34:00,
2013-02-18 05:39:00,13.8,2.5,30.07,NNW,337,22.3,22.3,60,-99.99,,,-99.99,tws,2013-02-18 10:39:00,
2013-02-18 05:44:00,14.0,2.2,30.07,North,360,19.5,19.5,59,-99.99,,,-99.99,tws,2013-02-18 10:44:00,
2013-02-18 05:49:00,14.0,2.5,30.07,NNW,337,12.5,12.5,59,-99.99,,,-99.99,tws,2013-02-18 10:49:00,
2013-02-18 05:55:00,14.1,2.7,30.08,NE,45,7.9,7.9,60,-99.99,,,-99.99,tws,2013-02-18 10:55:00,
2013-02-18 06:00:00,14.0,2.8,30.08,NNE,22,5.9,5.9,60,-99.99,,,-99.99,tws,2013-02-18 11:00:00,
2013-02-18 06:05:00,13.5,2.8,30.08,NNE,22,6.7,6.7,62,-99.99,,,-99.99,tws,2013-02-18 11:05:00,
2013-02-18 06:10:00,14.0,2.7,30.09,North,360,2.5,2.5,60,-99.99,,,-99.99,tws,2013-02-18 11:10:00,
2013-02-18 06:15:00,13.7,3.0,30.09,NNE,22,3.3,3.3,62,-99.99,,,-99.99,tws,2013-02-18 11:15:00,
2013-02-18 06:20:00,13.7,2.7,30.10,North,360,5.3,5.3,61,-99.99,,,-99.99,tws,2013-02-18 11:20:00,
2013-02-18 06:25:00,13.4,2.7,30.10,NE,45,5.1,5.1,62,-99.99,,,-99.99,tws,2013-02-18 11:25:00,
2013-02-18 06:31:00,12.9,2.4,30.11,North,360,2.6,2.6,62,-99.99,,,-99.99,tws,2013-02-18 11:31:00,
2013-02-18 06:36:00,14.1,2.3,30.11,NNW,337,13.2,13.2,58,-99.99,,,-99.99,tws,2013-02-18 11:36:00,
2013-02-18 06:41:00,14.0,2.1,30.11,NNW,337,4.0,4.0,58,-99.99,,,-99.99,tws,2013-02-18 11:41:00,
2013-02-18 06:46:00,14.0,2.2,30.12,NW,315,9.3,9.3,58,-99.99,,,-99.99,tws,2013-02-18 11:46:00,
2013-02-18 06:51:00,14.1,2.3,30.12,NNW,337,7.1,7.1,58,-99.99,,,-99.99,tws,2013-02-18 11:51:00,
2013-02-18 06:56:00,14.3,2.3,30.12,North,0,12.5,12.5,58,-99.99,,,-99.99,tws,2013-02-18 11:56:00,
2013-02-18 07:01:00,14.5,2.3,30.13,North,360,15.8,15.8,58,-99.99,,,-99.99,tws,2013-02-18 12:01:00,
2013-02-18 07:06:00,14.5,3.0,30.13,North,360,7.1,7.1,60,-99.99,,,-99.99,tws,2013-02-18 12:06:00,
2013-02-18 07:11:00,14.1,3.1,30.13,NNE,22,8.2,8.2,61,-99.99,,,-99.99,tws,2013-02-18 12:11:00,
2013-02-18 07:16:00,13.6,2.4,30.13,NW,315,13.1,13.1,60,-99.99,,,-99.99,tws,2013-02-18 12:16:00,
2013-02-18 07:21:00,14.5,3.0,30.13,North,360,6.9,6.9,60,-99.99,,,-99.99,tws,2013-02-18 12:21:00,
2013-02-18 07:26:00,14.8,3.6,30.13,NE,45,7.4,7.4,60,-99.99,,,-99.99,tws,2013-02-18 12:26:00,
2013-02-18 07:31:00,14.6,3.4,30.13,NNE,22,16.9,16.9,61,-99.99,,,-99.99,tws,2013-02-18 12:31:00,
2013-02-18 07:36:00,14.8,3.7,30.14,NNW,337,4.9,4.9,61,-99.99,,,-99.99,tws,2013-02-18 12:36:00,
2013-02-18 07:41:00,14.9,3.1,30.14,NNE,22,15.7,15.7,59,-99.99,,,-99.99,tws,2013-02-18 12:41:00,
2013-02-18 07:46:00,15.8,3.8,30.14,NNE,22,8.4,8.4,58,-99.99,,,-99.99,tws,2013-02-18 12:46:00,
2013-02-18 07:51:00,15.5,3.3,30.15,WNW,292,3.4,3.4,58,-99.99,,,-99.99,tws,2013-02-18 12:51:00,
2013-02-18 07:56:00,16.5,4.2,30.14,NE,45,3.6,3.6,58,-99.99,,,-99.99,tws,2013-02-18 12:56:00,
2013-02-18 08:01:00,15.7,3.0,30.15,North,0,6.5,6.5,56,-99.99,,,-99.99,tws,2013-02-18 13:01:00,
2013-02-18 08:06:00,17.2,4.3,30.15,NE,45,3.3,3.3,56,-99.99,,,-99.99,tws,2013-02-18 13:06:00,
2013-02-18 08:11:00,17.2,3.9,30.15,NNE,22,6.7,6.7,55,-99.99,,,-99.99,tws,2013-02-18 13:11:00,
2013-02-18 08:16:00,18.1,4.3,30.16,NNE,22,0.9,0.9,54,-99.99,,,-99.99,tws,2013-02-18 13:16:00,
2013-02-18 08:21:00,17.5,3.9,30.15,NNW,337,11.2,11.2,54,-99.99,,,-99.99,tws,2013-02-18 13:21:00,
2013-02-18 08:26:00,18.0,4.2,30.16,NNE,22,8.2,8.2,54,-99.99,,,-99.99,tws,2013-02-18 13:26:00,
2013-02-18 08:31:00,18.1,3.8,30.15,NNE,22,6.8,6.8,53,-99.99,,,-99.99,tws,2013-02-18 13:31:00,
2013-02-18 08:36:00,18.5,4.1,30.16,NE,45,6.7,6.7,53,-99.99,,,-99.99,tws,2013-02-18 13:36:00,
2013-02-18 08:41:00,18.2,3.8,30.16,NNE,22,9.1,9.1,53,-99.99,,,-99.99,tws,2013-02-18 13:41:00,
2013-02-18 08:46:00,18.7,4.0,30.15,ENE,67,8.6,8.6,52,-99.99,,,-99.99,tws,2013-02-18 13:46:00,
2013-02-18 08:51:00,18.3,3.3,30.16,NW,315,12.0,12.0,51,-99.99,,,-99.99,tws,2013-02-18 13:51:00,
2013-02-18 08:56:00,19.2,3.7,30.16,NNE,22,10.9,10.9,50,-99.99,,,-99.99,tws,2013-02-18 13:56:00,
2013-02-18 09:01:00,19.5,3.9,30.16,NE,45,11.4,11.4,50,-99.99,,,-99.99,tws,2013-02-18 14:01:00,
2013-02-18 09:06:00,20.1,4.0,30.16,North,360,3.5,3.5,49,-99.99,,,-99.99,tws,2013-02-18 14:06:00,
2013-02-18 09:11:00,20.4,4.3,30.16,ENE,67,10.0,10.0,49,-99.99,,,-99.99,tws,2013-02-18 14:11:00,
2013-02-18 09:16:00,20.2,3.8,30.16,NE,45,10.6,10.6,48,-99.99,,,-99.99,tws,2013-02-18 14:16:00,
2013-02-18 09:21:00,20.5,4.1,30.16,NNW,337,7.3,7.3,48,-99.99,,,-99.99,tws,2013-02-18 14:21:00,
2013-02-18 09:26:00,21.5,4.8,30.16,NNE,22,11.7,11.7,48,-99.99,,,-99.99,tws,2013-02-18 14:26:00,
2013-02-18 09:31:00,21.2,4.4,30.16,NNE,22,14.9,14.9,48,-99.99,,,-99.99,tws,2013-02-18 14:31:00,
2013-02-18 09:36:00,21.7,4.7,30.15,North,0,8.5,8.5,47,-99.99,,,-99.99,tws,2013-02-18 14:36:00,
2013-02-18 09:41:00,22.1,5.2,30.16,NNE,22,14.7,14.7,47,-99.99,,,-99.99,tws,2013-02-18 14:41:00,
2013-02-18 09:46:00,23.6,5.7,30.16,North,360,2.5,2.5,46,-99.99,,,-99.99,tws,2013-02-18 14:46:00,
2013-02-18 09:51:00,22.0,4.2,30.16,WNW,292,5.5,5.5,46,-99.99,,,-99.99,tws,2013-02-18 14:51:00,
2013-02-18 09:56:00,22.2,4.7,30.16,North,0,15.3,15.3,46,-99.99,,,-99.99,tws,2013-02-18 14:56:00,
2013-02-18 10:01:00,22.8,5.2,30.16,NNW,337,11.8,11.8,46,-99.99,,,-99.99,tws,2013-02-18 15:01:00,
2013-02-18 10:06:00,22.2,4.0,30.17,NNW,337,10.5,10.5,45,-99.99,,,-99.99,tws,2013-02-18 15:06:00,
2013-02-18 10:11:00,24.3,5.9,30.16,North,360,6.6,6.6,45,-99.99,,,-99.99,tws,2013-02-18 15:11:00,
2013-02-18 10:16:00,24.5,5.6,30.17,NNW,337,8.0,8.0,44,-99.99,,,-99.99,tws,2013-02-18 15:16:00,
2013-02-18 10:21:00,24.7,6.3,30.17,North,0,7.6,7.6,45,-99.99,,,-99.99,tws,2013-02-18 15:21:00,
2013-02-18 10:26:00,24.8,5.3,30.18,NNE,22,6.6,6.6,42,-99.99,,,-99.99,tws,2013-02-18 15:26:00,
2013-02-18 10:31:00,24.3,4.5,30.18,East,90,2.2,2.2,42,-99.99,,,-99.99,tws,2013-02-18 15:31:00,
2013-02-18 10:36:00,23.9,4.2,30.18,West,270,6.4,6.4,42,-99.99,,,-99.99,tws,2013-02-18 15:36:00,
2013-02-18 10:41:00,25.5,5.0,30.18,North,360,3.5,3.5,41,-99.99,,,-99.99,tws,2013-02-18 15:41:00,
2013-02-18 10:46:00,27.0,6.1,30.18,NNE,22,5.9,5.9,40,-99.99,,,-99.99,tws,2013-02-18 15:46:00,
2013-02-18 10:52:00,29.0,8.6,30.18,NNW,337,8.2,8.2,41,-99.99,,,-99.99,tws,2013-02-18 15:52:00,
2013-02-18 10:57:00,26.1,5.5,30.18,North,360,9.3,9.3,41,-99.99,,,-99.99,tws,2013-02-18 15:57:00,
2013-02-18 11:02:00,26.4,5.4,30.18,North,360,5.2,5.2,40,-99.99,,,-99.99,tws,2013-02-18 16:02:00,
2013-02-18 11:08:00,29.0,7.2,30.17,NE,45,5.5,5.5,39,-99.99,,,-99.99,tws,2013-02-18 16:08:00,
2013-02-18 11:13:00,26.4,4.7,30.17,NNW,337,12.3,12.3,39,-99.99,,,-99.99,tws,2013-02-18 16:13:00,
2013-02-18 11:19:00,28.5,6.2,30.17,NE,45,4.0,4.0,38,-99.99,,,-99.99,tws,2013-02-18 16:19:00,
2013-02-18 11:24:00,26.7,4.8,30.17,WNW,292,15.0,15.0,38,-99.99,,,-99.99,tws,2013-02-18 16:24:00,
2013-02-18 11:30:00,27.5,5.5,30.16,NW,315,19.6,19.6,38,-99.99,,,-99.99,tws,2013-02-18 16:30:00,
2013-02-18 11:35:00,30.0,7.8,30.16,NE,45,11.5,11.5,38,-99.99,,,-99.99,tws,2013-02-18 16:35:00,
2013-02-18 11:41:00,30.1,7.7,30.16,NNW,337,13.3,13.3,38,-99.99,,,-99.99,tws,2013-02-18 16:41:00,
2013-02-18 11:46:00,28.4,7.4,30.16,North,360,16.2,16.2,40,-99.99,,,-99.99,tws,2013-02-18 16:46:00,
2013-02-18 11:51:00,29.9,7.6,30.16,North,360,13.2,13.2,38,-99.99,,,-99.99,tws,2013-02-18 16:51:00,
2013-02-18 11:57:00,29.7,7.2,30.16,ENE,67,13.0,13.0,38,-99.99,,,-99.99,tws,2013-02-18 16:57:00,
2013-02-18 12:02:00,29.4,7.0,30.16,North,0,12.2,12.2,38,-99.99,,,-99.99,tws,2013-02-18 17:02:00,
2013-02-18 12:07:00,29.2,7.0,30.16,NNE,22,19.7,19.7,38,-99.99,,,-99.99,tws,2013-02-18 17:07:00,
2013-02-18 12:12:00,28.3,5.7,30.16,NNW,337,21.1,21.1,37,-99.99,,,-99.99,tws,2013-02-18 17:12:00,
2013-02-18 12:17:00,30.0,7.5,30.16,North,360,23.3,23.3,38,-99.99,,,-99.99,tws,2013-02-18 17:17:00,
2013-02-18 12:22:00,30.0,7.7,30.16,NNW,337,13.0,13.0,38,-99.99,,,-99.99,tws,2013-02-18 17:22:00,
2013-02-18 12:27:00,31.3,8.2,30.16,ENE,67,16.6,16.6,37,-99.99,,,-99.99,tws,2013-02-18 17:27:00,
2013-02-18 12:32:00,31.2,8.7,30.16,North,360,6.4,6.4,38,-99.99,,,-99.99,tws,2013-02-18 17:32:00,
2013-02-18 12:38:00,31.8,9.2,30.15,NW,315,8.2,8.2,38,-99.99,,,-99.99,tws,2013-02-18 17:38:00,
2013-02-18 12:43:00,31.8,8.9,30.15,NE,45,16.4,16.4,38,-99.99,,,-99.99,tws,2013-02-18 17:43:00,
2013-02-18 12:48:00,30.9,7.2,30.15,NNW,337,13.9,13.9,36,-99.99,,,-99.99,tws,2013-02-18 17:48:00,
2013-02-18 12:53:00,32.2,9.2,30.15,NNE,22,15.5,15.5,37,-99.99,,,-99.99,tws,2013-02-18 17:53:00,
2013-02-18 12:59:00,34.3,11.1,30.15,East,90,5.9,5.9,37,-99.99,,,-99.99,tws,2013-02-18 17:59:00,
2013-02-18 13:04:00,30.9,7.9,30.14,WNW,292,22.9,22.9,37,-99.99,,,-99.99,tws,2013-02-18 18:04:00,
2013-02-18 13:09:00,30.9,7.1,30.14,West,270,16.5,16.5,36,-99.99,,,-99.99,tws,2013-02-18 18:09:00,
2013-02-18 13:15:00,31.5,8.1,30.15,NNW,337,16.6,16.6,37,-99.99,,,-99.99,tws,2013-02-18 18:15:00,
2013-02-18 13:20:00,32.7,8.5,30.14,NW,315,15.9,15.9,36,-99.99,,,-99.99,tws,2013-02-18 18:20:00,
2013-02-18 13:26:00,34.3,10.0,30.14,North,360,20.8,20.8,36,-99.99,,,-99.99,tws,2013-02-18 18:26:00,
2013-02-18 13:32:00,33.4,9.8,30.14,WNW,292,15.9,15.9,37,-99.99,,,-99.99,tws,2013-02-18 18:32:00,
2013-02-18 13:37:00,33.0,9.3,30.14,NW,315,13.3,13.3,36,-99.99,,,-99.99,tws,2013-02-18 18:37:00,
2013-02-18 13:42:00,33.4,10.1,30.14,ENE,67,11.4,11.4,37,-99.99,,,-99.99,tws,2013-02-18 18:42:00,
2013-02-18 13:48:00,33.2,9.9,30.14,NNW,337,10.5,10.5,37,-99.99,,,-99.99,tws,2013-02-18 18:48:00,
2013-02-18 13:53:00,31.7,7.4,30.14,WNW,292,23.5,23.5,35,-99.99,,,-99.99,tws,2013-02-18 18:53:00,
2013-02-18 13:58:00,32.8,8.0,30.13,NW,315,19.8,19.8,35,-99.99,,,-99.99,tws,2013-02-18 18:58:00,
2013-02-18 14:04:00,32.2,7.8,30.13,WNW,292,25.4,25.4,35,-99.99,,,-99.99,tws,2013-02-18 19:04:00,
2013-02-18 14:09:00,34.0,9.5,30.13,NW,315,11.6,11.6,35,-99.99,,,-99.99,tws,2013-02-18 19:09:00,
2013-02-18 14:14:00,34.2,10.5,30.13,North,360,19.4,19.4,37,-99.99,,,-99.99,tws,2013-02-18 19:14:00,
2013-02-18 14:19:00,35.8,10.8,30.13,North,360,11.8,11.8,35,-99.99,,,-99.99,tws,2013-02-18 19:19:00,
2013-02-18 14:24:00,33.7,8.7,30.13,NNW,337,13.6,13.6,34,-99.99,,,-99.99,tws,2013-02-18 19:24:00,
2013-02-18 14:30:00,39.0,12.6,30.13,NNW,337,7.2,7.2,33,-99.99,,,-99.99,tws,2013-02-18 19:30:00,
2013-02-18 14:35:00,36.4,10.2,30.13,WNW,292,8.3,8.3,33,-99.99,,,-99.99,tws,2013-02-18 19:35:00,
2013-02-18 14:41:00,35.0,9.3,30.13,NNW,337,16.8,16.8,34,-99.99,,,-99.99,tws,2013-02-18 19:41:00,
2013-02-18 14:47:00,39.7,13.2,30.14,North,0,8.1,8.1,33,-99.99,,,-99.99,tws,2013-02-18 19:47:00,
2013-02-18 14:52:00,37.5,11.2,30.13,North,0,3.4,3.4,33,-99.99,,,-99.99,tws,2013-02-18 19:52:00,
2013-02-18 14:57:00,39.6,12.7,30.13,North,0,15.3,15.3,33,-99.99,,,-99.99,tws,2013-02-18 19:57:00,
2013-02-18 15:02:00,36.2,10.5,30.14,NW,315,7.1,7.1,34,-99.99,,,-99.99,tws,2013-02-18 20:02:00,
2013-02-18 15:08:00,38.5,12.3,30.13,NNW,337,14.2,14.2,33,-99.99,,,-99.99,tws,2013-02-18 20:08:00,
2013-02-18 15:13:00,38.1,11.5,30.13,NE,45,6.3,6.3,33,-99.99,,,-99.99,tws,2013-02-18 20:13:00,
2013-02-18 15:18:00,40.5,13.0,30.13,NNE,22,8.3,8.3,32,-99.99,,,-99.99,tws,2013-02-18 20:18:00,
2013-02-18 15:23:00,40.7,12.9,30.14,North,0,3.4,3.4,31,-99.99,,,-99.99,tws,2013-02-18 20:23:00,
2013-02-18 15:28:00,40.6,12.0,30.13,North,360,10.3,10.3,30,-99.99,,,-99.99,tws,2013-02-18 20:28:00,
2013-02-18 15:33:00,41.5,13.6,30.14,NNW,337,2.0,2.0,31,-99.99,,,-99.99,tws,2013-02-18 20:33:00,
2013-02-18 15:38:00,42.7,13.8,30.14,NNW,337,7.9,7.9,30,-99.99,,,-99.99,tws,2013-02-18 20:38:00,
2013-02-18 15:43:00,41.6,13.7,30.14,North,360,5.8,5.8,31,-99.99,,,-99.99,tws,2013-02-18 20:43:00,
2013-02-18 15:48:00,40.2,12.8,30.14,NNE,22,3.5,3.5,32,-99.99,,,-99.99,tws,2013-02-18 20:48:00,
2013-02-18 15:53:00,38.5,11.3,30.14,NNW,337,10.2,10.2,32,-99.99,,,-99.99,tws,2013-02-18 20:53:00,
2013-02-18 15:58:00,40.8,12.2,30.13,NW,315,13.1,13.1,30,-99.99,,,-99.99,tws,2013-02-18 20:58:00,
2013-02-18 16:04:00,35.3,8.2,30.14,NNW,337,21.5,21.5,32,-99.99,,,-99.99,tws,2013-02-18 21:04:00,
2013-02-18 16:09:00,35.5,7.7,30.14,NW,315,23.6,23.6,31,-99.99,,,-99.99,tws,2013-02-18 21:09:00,
2013-02-18 16:14:00,35.4,8.7,30.14,NW,315,12.3,12.3,32,-99.99,,,-99.99,tws,2013-02-18 21:14:00,
2013-02-18 16:19:00,36.0,8.1,30.13,NNW,337,17.8,17.8,31,-99.99,,,-99.99,tws,2013-02-18 21:19:00,
2013-02-18 16:24:00,36.1,8.6,30.13,NW,315,18.9,18.9,31,-99.99,,,-99.99,tws,2013-02-18 21:24:00,
2013-02-18 16:29:00,37.2,9.6,30.13,NNW,337,15.2,15.2,31,-99.99,,,-99.99,tws,2013-02-18 21:29:00,
2013-02-18 16:34:00,39.3,10.8,30.13,NW,315,6.1,6.1,30,-99.99,,,-99.99,tws,2013-02-18 21:34:00,
2013-02-18 16:39:00,38.3,9.9,30.13,NW,315,10.1,10.1,30,-99.99,,,-99.99,tws,2013-02-18 21:39:00,
2013-02-18 16:45:00,36.0,8.9,30.13,NW,315,10.7,10.7,32,-99.99,,,-99.99,tws,2013-02-18 21:45:00,
2013-02-18 16:50:00,38.0,9.8,30.14,WNW,292,6.3,6.3,30,-99.99,,,-99.99,tws,2013-02-18 21:50:00,
2013-02-18 16:55:00,39.6,11.8,30.14,NW,315,6.7,6.7,31,-99.99,,,-99.99,tws,2013-02-18 21:55:00,
2013-02-18 17:01:00,39.5,12.1,30.14,NW,315,6.3,6.3,32,-99.99,,,-99.99,tws,2013-02-18 22:01:00,
2013-02-18 17:07:00,38.7,11.3,30.14,North,360,1.4,1.4,32,-99.99,,,-99.99,tws,2013-02-18 22:07:00,
2013-02-18 17:13:00,38.3,10.9,30.14,North,360,3.5,3.5,31,-99.99,,,-99.99,tws,2013-02-18 22:13:00,
2013-02-18 17:19:00,35.7,11.4,30.14,East,90,1.3,1.3,36,-99.99,,,-99.99,tws,2013-02-18 22:19:00,
2013-02-18 17:24:00,34.3,11.0,30.14,East,90,2.7,2.7,37,-99.99,,,-99.99,tws,2013-02-18 22:24:00,
2013-02-18 17:29:00,33.4,11.6,30.14,ENE,67,0.2,0.2,40,-99.99,,,-99.99,tws,2013-02-18 22:29:00,
2013-02-18 17:34:00,32.5,11.6,30.14,ESE,112,0.3,0.3,41,-99.99,,,-99.99,tws,2013-02-18 22:34:00,
2013-02-18 17:39:00,31.3,11.5,30.14,East,90,1.1,1.1,43,-99.99,,,-99.99,tws,2013-02-18 22:39:00,
2013-02-18 17:44:00,31.1,10.9,30.14,ENE,67,0.4,0.4,42,-99.99,,,-99.99,tws,2013-02-18 22:44:00,
2013-02-18 17:49:00,30.3,10.8,30.14,North,0,4.4,4.4,43,-99.99,,,-99.99,tws,2013-02-18 22:49:00,
2013-02-18 17:55:00,30.5,10.6,30.14,North,360,3.8,3.8,43,-99.99,,,-99.99,tws,2013-02-18 22:55:00,
2013-02-18 18:01:00,30.7,10.8,30.15,North,360,0.0,0.0,43,-99.99,,,-99.99,tws,2013-02-18 23:01:00,
2013-02-18 18:06:00,31.0,10.7,30.15,North,360,0.0,0.0,42,-99.99,,,-99.99,tws,2013-02-18 23:06:00,
2013-02-18 18:11:00,31.3,11.1,30.15,NNE,22,0.0,0.0,42,-99.99,,,-99.99,tws,2013-02-18 23:11:00,
2013-02-18 18:16:00,30.9,10.6,30.15,NNE,22,0.0,0.0,42,-99.99,,,-99.99,tws,2013-02-18 23:16:00,
2013-02-18 18:21:00,30.8,10.8,30.15,ENE,67,0.0,0.0,43,-99.99,,,-99.99,tws,2013-02-18 23:21:00,
2013-02-18 18:26:00,29.5,10.2,30.16,NE,45,0.0,0.0,43,-99.99,,,-99.99,tws,2013-02-18 23:26:00,
2013-02-18 18:31:00,28.6,10.9,30.16,NNE,22,0.0,0.0,47,-99.99,,,-99.99,tws,2013-02-18 23:31:00,
2013-02-18 18:36:00,28.1,11.1,30.16,NNE,22,2.1,2.1,48,-99.99,,,-99.99,tws,2013-02-18 23:36:00,
2013-02-18 18:42:00,28.4,9.7,30.16,NNE,22,0.0,0.0,45,-99.99,,,-99.99,tws,2013-02-18 23:42:00,
2013-02-18 18:48:00,28.6,9.6,30.16,ENE,67,0.0,0.0,44,-99.99,,,-99.99,tws,2013-02-18 23:48:00,
2013-02-18 18:54:00,27.1,11.4,30.16,East,90,0.5,0.5,51,-99.99,,,-99.99,tws,2013-02-18 23:54:00,
2013-02-18 18:59:00,27.7,10.6,30.16,ENE,67,0.5,0.5,48,-99.99,,,-99.99,tws,2013-02-18 23:59:00,
2013-02-18 19:04:00,28.1,11.0,30.16,ENE,67,2.0,2.0,48,-99.99,,,-99.99,tws,2013-02-19 00:04:00,
2013-02-18 19:09:00,26.5,9.2,30.15,NE,45,6.4,6.4,47,-99.99,,,-99.99,tws,2013-02-19 00:09:00,
2013-02-18 19:14:00,26.2,10.2,30.16,NNE,22,3.5,3.5,50,-99.99,,,-99.99,tws,2013-02-19 00:14:00,
2013-02-18 19:19:00,26.3,10.6,30.15,ENE,67,5.0,5.0,51,-99.99,,,-99.99,tws,2013-02-19 00:19:00,
2013-02-18 19:25:00,26.1,10.2,30.15,ENE,67,3.7,3.7,50,-99.99,,,-99.99,tws,2013-02-19 00:25:00,
2013-02-18 19:31:00,25.7,10.1,30.16,NE,45,6.2,6.2,51,-99.99,,,-99.99,tws,2013-02-19 00:31:00,
2013-02-18 19:36:00,25.4,9.9,30.15,NE,45,5.4,5.4,51,-99.99,,,-99.99,tws,2013-02-19 00:36:00,
2013-02-18 19:41:00,25.5,10.6,30.16,East,90,3.1,3.1,53,-99.99,,,-99.99,tws,2013-02-19 00:41:00,
2013-02-18 19:47:00,25.3,10.1,30.16,NE,45,3.6,3.6,52,-99.99,,,-99.99,tws,2013-02-19 00:47:00,
2013-02-18 19:53:00,25.3,10.0,30.16,NE,45,0.7,0.7,52,-99.99,,,-99.99,tws,2013-02-19 00:53:00,
2013-02-18 19:59:00,25.8,10.3,30.16,ESE,112,1.2,1.2,51,-99.99,,,-99.99,tws,2013-02-19 00:59:00,
2013-02-18 20:05:00,25.5,10.4,30.16,East,90,0.3,0.3,52,-99.99,,,-99.99,tws,2013-02-19 01:05:00,
2013-02-18 20:10:00,25.5,9.4,30.15,SE,135,0.0,0.0,50,-99.99,,,-99.99,tws,2013-02-19 01:10:00,
2013-02-18 20:15:00,25.5,10.1,30.16,SE,135,1.0,1.0,51,-99.99,,,-99.99,tws,2013-02-19 01:15:00,
2013-02-18 20:20:00,25.3,10.1,30.16,ESE,112,0.1,0.1,52,-99.99,,,-99.99,tws,2013-02-19 01:20:00,
2013-02-18 20:25:00,25.7,9.5,30.16,SE,135,0.0,0.0,50,-99.99,,,-99.99,tws,2013-02-19 01:25:00,
2013-02-18 20:30:00,26.6,11.3,30.16,East,90,0.0,0.0,52,-99.99,,,-99.99,tws,2013-02-19 01:30:00,
2013-02-18 20:36:00,25.0,9.3,30.16,ENE,67,0.0,0.0,50,-99.99,,,-99.99,tws,2013-02-19 01:36:00,
2013-02-18 20:41:00,24.3,8.3,30.17,NE,45,0.0,0.0,50,-99.99,,,-99.99,tws,2013-02-19 01:41:00,
2013-02-18 20:47:00,24.4,8.8,30.16,NNE,22,0.0,0.0,51,-99.99,,,-99.99,tws,2013-02-19 01:47:00,
2013-02-18 20:52:00,25.2,9.2,30.16,NE,45,0.0,0.0,50,-99.99,,,-99.99,tws,2013-02-19 01:52:00,
2013-02-18 20:57:00,24.8,8.9,30.16,NNE,22,0.0,0.0,50,-99.99,,,-99.99,tws,2013-02-19 01:57:00,
2013-02-18 21:02:00,23.6,8.6,30.16,North,0,0.0,0.0,52,-99.99,,,-99.99,tws,2013-02-19 02:02:00,
2013-02-18 21:07:00,23.9,8.9,30.16,NNE,22,0.0,0.0,52,-99.99,,,-99.99,tws,2013-02-19 02:07:00,
2013-02-18 21:12:00,23.6,8.9,30.16,NNE,22,0.0,0.0,53,-99.99,,,-99.99,tws,2013-02-19 02:12:00,
2013-02-18 21:18:00,23.8,9.3,30.16,East,90,4.2,4.2,53,-99.99,,,-99.99,tws,2013-02-19 02:18:00,
2013-02-18 21:24:00,23.0,10.5,30.16,East,90,5.0,5.0,58,-99.99,,,-99.99,tws,2013-02-19 02:24:00,
2013-02-18 21:29:00,22.8,11.5,30.16,East,90,2.9,2.9,61,-99.99,,,-99.99,tws,2013-02-19 02:29:00,
2013-02-18 21:34:00,23.2,10.2,30.15,East,90,2.7,2.7,57,-99.99,,,-99.99,tws,2013-02-19 02:34:00,
2013-02-18 21:40:00,22.9,10.9,30.15,ENE,67,1.4,1.4,59,-99.99,,,-99.99,tws,2013-02-19 02:40:00,
2013-02-18 21:45:00,22.1,10.5,30.15,ENE,67,2.1,2.1,60,-99.99,,,-99.99,tws,2013-02-19 02:45:00,
2013-02-18 21:50:00,22.5,9.7,30.15,ENE,67,2.9,2.9,57,-99.99,,,-99.99,tws,2013-02-19 02:50:00,
2013-02-18 21:55:00,21.8,10.0,30.15,ENE,67,1.7,1.7,60,-99.99,,,-99.99,tws,2013-02-19 02:55:00,
2013-02-18 22:00:00,21.8,10.7,30.15,East,90,2.6,2.6,62,-99.99,,,-99.99,tws,2013-02-19 03:00:00,
2013-02-18 22:05:00,22.8,11.6,30.14,ENE,67,0.7,0.7,61,-99.99,,,-99.99,tws,2013-02-19 03:05:00,
2013-02-18 22:10:00,22.6,11.7,30.14,NE,45,0.2,0.2,62,-99.99,,,-99.99,tws,2013-02-19 03:10:00,
2013-02-18 22:16:00,22.7,11.0,30.15,East,90,0.0,0.0,60,-99.99,,,-99.99,tws,2013-02-19 03:16:00,
2013-02-18 22:21:00,23.2,11.6,30.14,ESE,112,0.0,0.0,60,-99.99,,,-99.99,tws,2013-02-19 03:21:00,
2013-02-18 22:27:00,22.7,10.5,30.14,ESE,112,0.0,0.0,59,-99.99,,,-99.99,tws,2013-02-19 03:27:00,
2013-02-18 22:32:00,23.8,10.4,30.14,ESE,112,0.0,0.0,56,-99.99,,,-99.99,tws,2013-02-19 03:32:00,
2013-02-18 22:37:00,22.9,10.3,30.14,ESE,112,0.0,0.0,58,-99.99,,,-99.99,tws,2013-02-19 03:37:00,
2013-02-18 22:42:00,22.5,10.0,30.14,ESE,112,0.0,0.0,58,-99.99,,,-99.99,tws,2013-02-19 03:42:00,
2013-02-18 22:47:00,22.7,9.6,30.14,ESE,112,0.0,0.0,56,-99.99,,,-99.99,tws,2013-02-19 03:47:00,
2013-02-18 22:52:00,22.9,9.8,30.14,ESE,112,0.0,0.0,56,-99.99,,,-99.99,tws,2013-02-19 03:52:00,
2013-02-18 22:57:00,23.8,10.9,30.14,ESE,112,0.0,0.0,57,-99.99,,,-99.99,tws,2013-02-19 03:57:00,
2013-02-18 23:03:00,22.6,11.9,30.15,WSW,247,1.7,1.7,63,-99.99,,,-99.99,tws,2013-02-19 04:03:00,
2013-02-18 23:08:00,21.9,12.7,30.15,WSW,247,0.0,0.0,67,-99.99,,,-99.99,tws,2013-02-19 04:08:00,
2013-02-18 23:14:00,22.5,12.3,30.14,SE,135,0.0,0.0,64,-99.99,,,-99.99,tws,2013-02-19 04:14:00,
2013-02-18 23:19:00,23.1,10.4,30.15,SW,225,0.1,0.1,57,-99.99,,,-99.99,tws,2013-02-19 04:19:00,
2013-02-18 23:24:00,22.8,10.6,30.14,SSW,202,0.0,0.0,59,-99.99,,,-99.99,tws,2013-02-19 04:24:00,
2013-02-18 23:30:00,22.8,11.3,30.14,SSE,157,1.8,1.8,61,-99.99,,,-99.99,tws,2013-02-19 04:30:00,
2013-02-18 23:35:00,22.7,10.4,30.14,SSE,157,1.9,1.9,58,-99.99,,,-99.99,tws,2013-02-19 04:35:00,
2013-02-18 23:40:00,22.5,11.4,30.14,SSE,157,2.0,2.0,62,-99.99,,,-99.99,tws,2013-02-19 04:40:00,
2013-02-18 23:45:00,22.8,12.2,30.14,SSE,157,0.0,0.0,63,-99.99,,,-99.99,tws,2013-02-19 04:45:00,
2013-02-18 23:51:00,22.2,11.7,30.15,South,180,2.7,2.7,63,-99.99,,,-99.99,tws,2013-02-19 04:51:00,
2013-02-18 23:57:00,22.3,11.4,30.14,SW,225,3.8,3.8,62,-99.99,,,-99.99,tws,2013-02-19 04:57:00,